Buffalo, WY

1:07 PM MST on December 02, 2016 (GMT -0700)
Johnson County

Weather History for KBYG - December, 2013

Change the Weather History Date:

Wednesday, December 4, 2013

  Actual Average Record
Temperature  
Mean Temperature -3 °F 26 °F  
Max Temperature 2 °F 37 °F 61 °F (2007)
Min Temperature -9 °F 16 °F -9 °F (2013)
Degree Days  
Heating Degree Days 68 39  
Month to date heating degree days 177 153  
Since 1 July heating degree days 1885 1987  
Cooling Degree Days 0 0  
Month to date cooling degree days 0 0  
Year to date cooling degree days 709 492  
Moisture  
Dew Point -8 °F    
Average Humidity 76    
Maximum Humidity 87    
Minimum Humidity 65    
Precipitation  
Precipitation T in 0.02 in 0.02 in (2011)
Month to date precipitation 0.18 0.08  
Year to date precipitation 10.31 13.13  
Sea Level Pressure  
Sea Level Pressure 30.03 in    
Wind  
Wind Speed 21 mph (NNW)    
Max Wind Speed 39 mph    
Max Gust Speed 49 mph    
Visibility 4 miles    
Events Snow    
T = Trace of Precipitation, MM = Missing Value Source: NWS Daily Summary

Daily Weather History Graph

Daily Weather History Graph

Search for Another Location

Airport or City:

Trip Planner

Search our weather history database for the weather conditions in past years. The results will help you decide how hot, cold, wet, or windy it might be!

Date:

Astronomy

Dec. 04, 2013 Rise Set
Actual Time 7:26 AM MST 4:27 PM MST
Civil Twilight 6:53 AM MST 5:00 PM MST
Nautical Twilight 6:17 AM MST 5:37 PM MST
Astronomical Twilight 5:42 AM MST 6:12 PM MST
Moon 8:55 AM MST (12/4) 6:43 PM MST (12/4)
Length of Visible Light 10h 07m
Length of Day
9h 01m
Waxing Crescent, 5% of the Moon is Illuminated
Dec 4
Waxing Crescent
Dec 9
First Quarter
Dec 17
Full
Dec 25
Last Quarter
Jan 1
New

Hourly Weather History & Observations

Time (MST) Temp. Windchill Dew Point Humidity Pressure Visibility Wind Dir Wind Speed Gust Speed Precip Events Conditions
12:01 AM 1.9 °F -23.9 °F -2.9 °F 80% 29.86 in 1.5 mi NNW 32.2 mph 39.1 mph 0.00 in Snow Blowing Snow
12:21 AM 1.9 °F -23.6 °F -2.9 °F 80% 29.85 in 1.0 mi NNW 31.1 mph 43.7 mph 0.00 in   Unknown
12:29 AM 1.9 °F -23.2 °F -2.9 °F 80% 29.86 in 0.5 mi NNW 29.9 mph 40.3 mph 0.00 in Snow Snow
12:53 AM -0.0 °F -27.3 °F -5.1 °F 79% 30.10 in 0.8 mi North 34.5 mph 48.3 mph 0.00 in   Unknown
1:05 AM -0.0 °F -26.6 °F -6.0 °F 76% 29.85 in 1.2 mi NNW 32.2 mph 44.9 mph 0.00 in Snow Blowing Snow
1:24 AM -0.9 °F -27.8 °F -6.0 °F 79% 29.86 in 1.0 mi NNW 32.2 mph 42.6 mph 0.00 in   Unknown
1:34 AM -0.9 °F -26.3 °F -6.0 °F 79% 29.87 in 1.5 mi NNW 27.6 mph 39.1 mph 0.00 in   Overcast
1:48 AM -2.2 °F -28.8 °F -7.6 °F 78% 29.87 in 1.0 mi NNW 29.9 mph 39.1 mph 0.00 in   Unknown
1:53 AM -2.0 °F -29.3 °F -7.1 °F 79% 30.13 in 1.0 mi North 32.2 mph 41.4 mph 0.00 in   Unknown
2:02 AM -2.0 °F -29.7 °F -7.1 °F 79% 29.85 in 1.2 mi North 33.4 mph 41.4 mph 0.00 in   Overcast
2:29 AM -2.0 °F -28.9 °F -7.1 °F 79% 29.86 in 2.5 mi NNW 31.1 mph 40.3 mph 0.00 in   Overcast
2:46 AM -2.0 °F -27.8 °F -8.0 °F 76% 29.86 in 4.0 mi NNW 27.6 mph 42.6 mph 0.00 in   Haze
2:53 AM -2.0 °F -28.9 °F -8.0 °F 76% 30.12 in 4.0 mi NNW 31.1 mph 36.8 mph 0.00 in   Haze
3:08 AM -2.0 °F -27.8 °F -7.1 °F 79% 29.87 in 2.5 mi North 27.6 mph 39.1 mph 0.00 in   Overcast
3:15 AM -2.0 °F -28.2 °F -8.0 °F 76% 29.87 in 4.0 mi North 28.8 mph 36.8 mph 0.00 in   Overcast
3:51 AM -2.2 °F -29.6 °F -7.6 °F 78% 29.84 in 1.8 mi NNW 32.2 mph 43.7 mph 0.00 in   Overcast
3:53 AM -2.0 °F -28.6 °F -8.0 °F 76% 30.11 in 1.8 mi NNW 29.9 mph 42.6 mph 0.00 in   Overcast
4:17 AM -2.0 °F -28.9 °F -8.0 °F 76% 29.85 in 2.0 mi NNW 31.1 mph 43.7 mph 0.00 in   Overcast
4:27 AM -2.0 °F -30.0 °F -8.0 °F 76% 29.85 in 3.0 mi NNW 34.5 mph 41.4 mph 0.00 in   Haze
4:37 AM -2.0 °F -27.8 °F -8.0 °F 76% 29.84 in 3.0 mi NNW 27.6 mph 42.6 mph 0.00 in   Haze
4:53 AM -2.0 °F -29.3 °F -7.1 °F 79% 30.12 in 4.0 mi North 32.2 mph 41.4 mph 0.00 in   Haze
5:53 AM -2.0 °F -29.3 °F -8.0 °F 76% 30.14 in 4.0 mi North 32.2 mph 41.4 mph N/A   Haze
6:53 AM -2.9 °F -27.6 °F -8.0 °F 79% 30.18 in 9.0 mi North 24.2 mph 34.5 mph N/A   Clear
7:39 AM -2.0 °F -28.2 °F -8.0 °F 76% 29.90 in 4.0 mi North 28.8 mph 34.5 mph N/A   Haze
7:53 AM -2.0 °F -27.3 °F -8.0 °F 76% 30.19 in 3.0 mi North 26.5 mph 40.3 mph N/A   Haze
8:06 AM -2.0 °F -28.9 °F -8.0 °F 76% 29.90 in 2.5 mi North 31.1 mph 38.0 mph N/A   Haze
8:13 AM -2.0 °F -29.3 °F -8.0 °F 76% 29.90 in 1.8 mi North 32.2 mph 43.7 mph N/A   Haze
8:26 AM -0.9 °F -27.1 °F -7.1 °F 75% 29.90 in 2.5 mi North 29.9 mph 40.3 mph N/A   Haze
8:36 AM -0.9 °F -27.8 °F -6.0 °F 79% 29.90 in 1.8 mi North 32.2 mph 39.1 mph 0.00 in   Overcast
8:53 AM -0.9 °F -28.2 °F -7.1 °F 75% 30.19 in 1.2 mi North 33.4 mph 43.7 mph 0.00 in   Overcast
9:00 AM -0.9 °F -28.5 °F -7.1 °F 75% 29.90 in 0.8 mi North 34.5 mph 42.6 mph 0.00 in   Overcast
9:53 AM -0.9 °F -29.2 °F -7.1 °F 75% 30.18 in 0.8 mi NNW 36.8 mph 43.7 mph 0.00 in   Overcast
9:59 AM -0.9 °F -28.2 °F -8.0 °F 72% 29.90 in 1.0 mi NNW 33.4 mph 44.9 mph 0.00 in   Overcast
10:18 AM -2.0 °F -30.4 °F -8.0 °F 76% 29.91 in 0.8 mi NNW 35.7 mph 46.0 mph 0.00 in   Overcast
10:30 AM -0.9 °F -27.5 °F -8.0 °F 72% 29.92 in 1.0 mi NNW 31.1 mph 46.0 mph 0.00 in   Overcast
10:37 AM -0.9 °F -27.5 °F -8.0 °F 72% 29.92 in 1.8 mi NNW 31.1 mph 44.9 mph 0.00 in   Haze
10:53 AM -0.9 °F -27.8 °F -8.0 °F 72% 30.20 in 1.5 mi NNW 32.2 mph 44.9 mph 0.00 in   Overcast
11:05 AM -0.9 °F -26.3 °F -8.0 °F 72% 29.92 in 2.5 mi NNW 27.6 mph 39.1 mph 0.00 in   Overcast
11:27 AM -0.9 °F -26.3 °F -8.0 °F 72% 29.92 in 2.5 mi NNW 27.6 mph 38.0 mph 0.00 in   Overcast
11:53 AM -0.9 °F -27.5 °F -8.0 °F 72% 30.20 in 3.0 mi North 31.1 mph 38.0 mph 0.00 in   Haze
12:53 PM -0.0 °F -24.7 °F -8.0 °F 69% 30.22 in 6.0 mi NNW 26.5 mph 35.7 mph N/A   Haze
1:53 PM -0.9 °F -24.1 °F -8.0 °F 72% 30.23 in 10.0 mi North 21.9 mph 34.5 mph N/A   Overcast
2:53 PM -0.9 °F -22.4 °F -8.0 °F 72% 30.24 in 10.0 mi North 18.4 mph 29.9 mph N/A   Overcast
3:25 PM -0.9 °F -19.1 °F -7.1 °F 75% 29.95 in 10.0 mi North 12.7 mph 21.9 mph N/A   Overcast
3:51 PM -0.4 °F -19.2 °F -7.6 °F 72% 29.96 in 10.0 mi North 13.8 mph 24.2 mph N/A   Overcast
3:53 PM -0.9 °F -21.9 °F -7.1 °F 75% 30.26 in 10.0 mi North 17.3 mph 23.0 mph N/A   Overcast
4:21 PM -2.0 °F -23.9 °F -7.1 °F 79% 29.97 in 5.0 mi North 18.4 mph 24.2 mph N/A   Haze
4:33 PM -2.0 °F -21.2 °F -7.1 °F 79% 29.98 in 2.0 mi NNW 13.8 mph 24.2 mph 0.00 in Snow Light Snow
4:43 PM -2.9 °F -22.4 °F -8.0 °F 79% 29.98 in 6.0 mi NNW 13.8 mph 24.2 mph 0.00 in   Haze
4:53 PM -2.9 °F -21.6 °F -8.0 °F 79% 30.28 in 10.0 mi NW 12.7 mph - 0.00 in   Overcast
5:53 PM -5.1 °F -19.1 °F -11.0 °F 76% 30.31 in 10.0 mi NW 6.9 mph - N/A   Clear
6:53 PM -4.0 °F -14.6 °F -9.9 °F 76% 30.32 in 10.0 mi Variable 4.6 mph - N/A   Scattered Clouds
7:53 PM -2.9 °F -11.2 °F -9.9 °F 72% 30.32 in 10.0 mi NNW 3.5 mph - N/A   Overcast
8:41 PM -4.0 °F - -11.0 °F 72% 30.02 in 10.0 mi Calm Calm - N/A   Mostly Cloudy
8:53 PM -2.9 °F -11.2 °F -11.0 °F 68% 30.34 in 10.0 mi NW 3.5 mph - N/A   Overcast
9:53 PM -8.0 °F - -13.0 °F 79% 30.35 in 10.0 mi Calm Calm - N/A   Mostly Cloudy
10:43 PM -6.0 °F -16.9 °F -11.0 °F 79% 30.02 in 10.0 mi SE 4.6 mph - N/A   Scattered Clouds
10:53 PM -8.0 °F -16.9 °F -13.0 °F 79% 30.35 in 10.0 mi SSE 3.5 mph - N/A   Partly Cloudy
11:53 PM -9.0 °F -18.2 °F -15.0 °F 75% 30.36 in 10.0 mi SW 3.5 mph - N/A   Clear